| time (UTC) | temp F | wind direction | speed MPH | gust MPH | rain 1hr in | rain 24hr in | rain mn in | humidity % | barometer mb |
| 20260508155932 | 82 | 127 | 2.0 | 3.0 | 0.00 | 0.00 | 0.00 | 78 | 1019.2 |
| 20260508155430 | 82 | 137 | 1.0 | 1.0 | 0.00 | 0.00 | 0.00 | 77 | 1019.2 |
| 20260508154926 | 82 | 92 | 1.0 | 2.0 | 0.00 | 0.00 | 0.00 | 77 | 1019.3 |
| 20260508154424 | 84 | 124 | 1.0 | 1.0 | 0.00 | 0.00 | 0.00 | 75 | 1019.2 |
| 20260508153920 | 83 | 160 | 0.0 | 1.0 | 0.00 | 0.00 | 0.00 | 74 | 1019.1 |
| 20260508153418 | 85 | 210 | 3.0 | 5.0 | 0.00 | 0.00 | 0.00 | 72 | 1019.3 |
| 20260508152914 | 85 | 178 | 0.0 | 0.0 | 0.00 | 0.00 | 0.00 | 72 | 1018.9 |
| 20260508152411 | 83 | 145 | 0.0 | 0.0 | 0.00 | 0.00 | 0.00 | 76 | 1019.2 |
| 20260508151907 | 83 | 164 | 1.0 | 2.0 | 0.00 | 0.00 | 0.00 | 74 | 1019.4 |
| 20260508151404 | 83 | 147 | 0.0 | 1.0 | 0.00 | 0.00 | 0.00 | 75 | 1019.2 |
| 20260508150900 | 83 | 169 | 0.0 | 1.0 | 0.00 | 0.00 | 0.00 | 76 | 1019.4 |
| 20260508150357 | 84 | 186 | 2.0 | 2.0 | 0.00 | 0.00 | 0.00 | 74 | 1019.5 |
| 20260508145853 | 84 | 136 | 3.0 | 3.0 | 0.00 | 0.00 | 0.00 | 74 | 1019.3 |
| 20260508145349 | 83 | 290 | 3.0 | 7.0 | 0.00 | 0.00 | 0.00 | 76 | 1019.3 |
| 20260508144846 | 82 | 186 | 3.0 | 3.0 | 0.00 | 0.00 | 0.00 | 76 | 1019.3 |
| 20260508144344 | 82 | 173 | 0.0 | 0.0 | 0.00 | 0.00 | 0.00 | 77 | 1019.1 |
| 20260508143841 | 83 | 177 | 2.0 | 2.0 | 0.00 | 0.00 | 0.00 | 76 | 1019.1 |
| 20260508143338 | 83 | 162 | 2.0 | 2.0 | 0.00 | 0.00 | 0.00 | 75 | 1019.1 |
| 20260508142835 | 82 | 130 | 1.0 | 2.0 | 0.00 | 0.00 | 0.00 | 77 | 1019.2 |
| 20260508142332 | 82 | 199 | 2.0 | 3.0 | 0.00 | 0.00 | 0.00 | 77 | 1019.1 |
| 20260508141828 | 81 | 202 | 2.0 | 3.0 | 0.00 | 0.00 | 0.00 | 78 | 1018.9 |
| 20260508141325 | 81 | 170 | 2.0 | 2.0 | 0.00 | 0.00 | 0.00 | 79 | 1019.1 |
| 20260508140823 | 82 | 204 | 2.0 | 2.0 | 0.00 | 0.00 | 0.00 | 77 | 1018.8 |
| 20260508140320 | 82 | 160 | 1.0 | 1.0 | 0.00 | 0.00 | 0.00 | 78 | 1019.1 |
| 20260508135815 | 82 | 205 | 1.0 | 2.0 | 0.00 | 0.00 | 0.00 | 79 | 1019.1 |
| 20260508135312 | 82 | 167 | 1.0 | 1.0 | 0.00 | 0.00 | 0.00 | 78 | 1018.9 |
| 20260508134808 | 81 | 165 | 1.0 | 2.0 | 0.00 | 0.00 | 0.00 | 79 | 1019.0 |
| 20260508134305 | 81 | 150 | 0.0 | 1.0 | 0.00 | 0.00 | 0.00 | 80 | 1018.9 |
| 20260508133802 | 80 | 169 | 1.0 | 1.0 | 0.00 | 0.00 | 0.00 | 81 | 1018.7 |
| 20260508133259 | 79 | 169 | 0.0 | 1.0 | 0.00 | 0.00 | 0.00 | 83 | 1019.1 |
| 20260508132757 | 80 | 167 | 0.0 | 0.0 | 0.00 | 0.00 | 0.00 | 83 | 1019.0 |
| 20260508132254 | 80 | 153 | 0.0 | 0.0 | 0.00 | 0.00 | 0.00 | 84 | 1018.8 |
| 20260508131750 | 79 | 160 | 2.0 | 3.0 | 0.00 | 0.00 | 0.00 | 84 | 1018.9 |
| 20260508131246 | 79 | 197 | 1.0 | 1.0 | 0.00 | 0.00 | 0.00 | 85 | 1018.9 |
| 20260508130743 | 78 | 165 | 0.0 | 1.0 | 0.00 | 0.00 | 0.00 | 85 | 1019.0 |
| 20260508130240 | 78 | 199 | 3.0 | 3.0 | 0.00 | 0.00 | 0.00 | 86 | 1019.1 |
| 20260508125736 | 78 | 129 | 3.0 | 3.0 | 0.00 | 0.00 | 0.00 | 86 | 1019.1 |
| 20260508125232 | 78 | 182 | 1.0 | 1.0 | 0.00 | 0.00 | 0.00 | 87 | 1018.9 |
| 20260508124731 | 78 | 171 | 2.0 | 3.0 | 0.00 | 0.00 | 0.00 | 87 | 1018.7 |
| 20260508124227 | 77 | 216 | 1.0 | 2.0 | 0.00 | 0.00 | 0.00 | 87 | 1018.8 |
| 20260508123726 | 77 | 155 | 1.0 | 1.0 | 0.00 | 0.00 | 0.00 | 88 | 1019.0 |
| 20260508123223 | 76 | 187 | 0.0 | 0.0 | 0.00 | 0.00 | 0.00 | 89 | 1018.7 |
| 20260508122719 | 76 | 161 | 0.0 | 1.0 | 0.00 | 0.00 | 0.00 | 90 | 1018.6 |
| 20260508122216 | 75 | 163 | 1.0 | 1.0 | 0.00 | 0.00 | 0.00 | 91 | 1018.8 |
| 20260508121714 | 75 | 160 | 0.0 | 0.0 | 0.00 | 0.00 | 0.00 | 91 | 1018.5 |
| 20260508121212 | 75 | 181 | 1.0 | 2.0 | 0.00 | 0.00 | 0.00 | 91 | 1018.4 |
| 20260508120709 | 74 | 160 | 0.0 | 0.0 | 0.00 | 0.00 | 0.00 | 92 | 1018.4 |
| 20260508120207 | 74 | 165 | 1.0 | 1.0 | 0.00 | 0.00 | 0.00 | 93 | 1018.5 |
| 20260508115705 | 74 | 178 | 0.0 | 0.0 | 0.00 | 0.00 | 0.00 | 93 | 1018.1 |
| 20260508115202 | 74 | 168 | 1.0 | 2.0 | 0.00 | 0.00 | 0.00 | 93 | 1018.2 |
| 20260508114658 | 74 | 162 | 0.0 | 0.0 | 0.00 | 0.00 | 0.00 | 94 | 1018.4 |
| 20260508114155 | 73 | 159 | 0.0 | 0.0 | 0.00 | 0.00 | 0.00 | 94 | 1018.2 |
| 20260508113652 | 73 | 174 | 1.0 | 2.0 | 0.00 | 0.00 | 0.00 | 94 | 1018.0 |
| 20260508113150 | 73 | 166 | 0.0 | 0.0 | 0.00 | 0.00 | 0.00 | 94 | 1018.2 |
| 20260508112646 | 73 | 163 | 0.0 | 0.0 | 0.00 | 0.00 | 0.00 | 94 | 1018.2 |
| 20260508112143 | 73 | 189 | 0.0 | 0.0 | 0.00 | 0.00 | 0.00 | 94 | 1018.2 |
| 20260508111639 | 73 | 168 | 0.0 | 0.0 | 0.00 | 0.00 | 0.00 | 94 | 1018.3 |
| 20260508111137 | 73 | 172 | 0.0 | 0.0 | 0.00 | 0.00 | 0.00 | 94 | 1018.2 |
| 20260508110635 | 73 | 187 | 1.0 | 1.0 | 0.00 | 0.00 | 0.00 | 94 | 1017.9 |
| 20260508110131 | 73 | 170 | 0.0 | 0.0 | 0.00 | 0.00 | 0.00 | 94 | 1017.8 |
| 20260508105626 | 72 | 173 | 1.0 | 2.0 | 0.00 | 0.00 | 0.00 | 94 | 1017.8 |
| 20260508105123 | 72 | 174 | 0.0 | 0.0 | 0.00 | 0.00 | 0.00 | 94 | 1017.9 |
| 20260508104621 | 72 | 174 | 0.0 | 0.0 | 0.00 | 0.00 | 0.00 | 94 | 1017.5 |
| 20260508104117 | 72 | 172 | 0.0 | 0.0 | 0.00 | 0.00 | 0.00 | 94 | 1017.6 |
| 20260508103614 | 72 | 171 | 0.0 | 0.0 | 0.00 | 0.00 | 0.00 | 94 | 1017.5 |
| 20260508103112 | 72 | 157 | 0.0 | 0.0 | 0.00 | 0.00 | 0.00 | 94 | 1017.5 |
| 20260508102609 | 72 | 157 | 0.0 | 0.0 | 0.00 | 0.00 | 0.00 | 94 | 1017.4 |
| 20260508102107 | 72 | 157 | 0.0 | 0.0 | 0.00 | 0.00 | 0.00 | 94 | 1017.6 |
| 20260508101604 | 71 | 157 | 0.0 | 0.0 | 0.00 | 0.00 | 0.00 | 94 | 1017.3 |
| 20260508101101 | 71 | 157 | 0.0 | 0.0 | 0.00 | 0.00 | 0.00 | 94 | 1017.2 |
| 20260508100559 | 71 | 157 | 0.0 | 0.0 | 0.00 | 0.00 | 0.00 | 94 | 1017.3 |
| 20260508100055 | 71 | 157 | 0.0 | 0.0 | 0.00 | 0.00 | 0.00 | 94 | 1017.0 |
| 20260508095553 | 71 | 157 | 0.0 | 0.0 | 0.00 | 0.00 | 0.00 | 94 | 1017.1 |
| 20260508095049 | 71 | 157 | 0.0 | 0.0 | 0.00 | 0.00 | 0.00 | 94 | 1017.2 |
| 20260508094547 | 71 | 157 | 0.0 | 0.0 | 0.00 | 0.00 | 0.00 | 94 | 1017.1 |
| 20260508094043 | 71 | 157 | 0.0 | 0.0 | 0.00 | 0.00 | 0.00 | 94 | 1017.0 |
| 20260508093541 | 71 | 157 | 0.0 | 0.0 | 0.00 | 0.00 | 0.00 | 94 | 1017.1 |
| 20260508093038 | 71 | 156 | 0.0 | 0.0 | 0.00 | 0.00 | 0.00 | 94 | 1016.9 |
| 20260508092535 | 71 | 170 | 0.0 | 0.0 | 0.00 | 0.00 | 0.00 | 94 | 1016.6 |
| 20260508092034 | 71 | 170 | 0.0 | 0.0 | 0.00 | 0.00 | 0.00 | 94 | 1016.7 |
| 20260508091531 | 71 | 170 | 0.0 | 0.0 | 0.00 | 0.00 | 0.00 | 94 | 1016.5 |
| 20260508091028 | 71 | 170 | 0.0 | 0.0 | 0.00 | 0.00 | 0.00 | 94 | 1016.7 |
| 20260508090526 | 71 | 170 | 0.0 | 0.0 | 0.00 | 0.00 | 0.00 | 94 | 1016.7 |
| 20260508090022 | 71 | 170 | 0.0 | 0.0 | 0.00 | 0.00 | 0.00 | 93 | 1016.8 |
| 20260508085519 | 71 | 169 | 0.0 | 0.0 | 0.00 | 0.00 | 0.00 | 93 | 1016.7 |
| 20260508085016 | 71 | 169 | 0.0 | 0.0 | 0.00 | 0.00 | 0.00 | 93 | 1016.7 |
| 20260508084513 | 71 | 169 | 0.0 | 0.0 | 0.00 | 0.00 | 0.00 | 93 | 1016.8 |
| 20260508084010 | 71 | 169 | 0.0 | 0.0 | 0.00 | 0.00 | 0.00 | 93 | 1016.6 |
| 20260508083507 | 71 | 169 | 0.0 | 0.0 | 0.00 | 0.00 | 0.00 | 93 | 1016.9 |
| 20260508083004 | 72 | 169 | 0.0 | 0.0 | 0.00 | 0.00 | 0.00 | 93 | 1016.9 |
| 20260508082459 | 72 | 167 | 0.0 | 0.0 | 0.00 | 0.00 | 0.00 | 92 | 1016.7 |
| 20260508081957 | 72 | 167 | 0.0 | 0.0 | 0.00 | 0.00 | 0.00 | 92 | 1016.9 |
| 20260508081453 | 72 | 166 | 0.0 | 0.0 | 0.00 | 0.00 | 0.00 | 92 | 1016.8 |
| 20260508080944 | 72 | 165 | 0.0 | 0.0 | 0.00 | 0.00 | 0.00 | 92 | 1016.8 |
| 20260508080443 | 73 | 165 | 0.0 | 0.0 | 0.00 | 0.00 | 0.00 | 92 | 1016.7 |
| 20260508075939 | 73 | 164 | 0.0 | 0.0 | 0.00 | 0.00 | 0.00 | 92 | 1016.7 |
| 20260508075436 | 73 | 163 | 0.0 | 0.0 | 0.00 | 0.00 | 0.00 | 92 | 1016.8 |
| 20260508074933 | 73 | 165 | 0.0 | 0.0 | 0.00 | 0.00 | 0.00 | 91 | 1016.8 |
| 20260508074431 | 73 | 160 | 0.0 | 0.0 | 0.00 | 0.00 | 0.00 | 91 | 1017.1 |
| 20260508073928 | 73 | 168 | 0.0 | 1.0 | 0.00 | 0.00 | 0.00 | 91 | 1016.9 |
| 20260508073425 | 73 | 168 | 0.0 | 0.0 | 0.00 | 0.00 | 0.00 | 91 | 1017.0 |
| 20260508072922 | 73 | 183 | 1.0 | 1.0 | 0.00 | 0.00 | 0.00 | 90 | 1016.8 |
| 20260508072418 | 73 | 166 | 0.0 | 0.0 | 0.00 | 0.00 | 0.00 | 90 | 1016.8 |
| 20260508071916 | 73 | 166 | 0.0 | 0.0 | 0.00 | 0.00 | 0.00 | 90 | 1017.0 |
| 20260508071414 | 73 | 166 | 0.0 | 0.0 | 0.00 | 0.00 | 0.00 | 90 | 1017.4 |
| 20260508070911 | 73 | 211 | 0.0 | 0.0 | 0.00 | 0.00 | 0.00 | 90 | 1017.0 |
| 20260508070409 | 73 | 168 | 0.0 | 0.0 | 0.00 | 0.00 | 0.00 | 89 | 1017.2 |
| 20260508065907 | 73 | 166 | 1.0 | 1.0 | 0.00 | 0.00 | 0.00 | 89 | 1017.4 |
| 20260508065404 | 74 | 165 | 0.0 | 0.0 | 0.00 | 0.00 | 0.00 | 89 | 1017.3 |
| 20260508064902 | 74 | 163 | 0.0 | 0.0 | 0.00 | 0.00 | 0.00 | 89 | 1017.4 |
| 20260508064359 | 74 | 168 | 0.0 | 0.0 | 0.00 | 0.00 | 0.00 | 89 | 1017.4 |
| 20260508063857 | 74 | 170 | 0.0 | 0.0 | 0.00 | 0.00 | 0.00 | 88 | 1017.4 |
| 20260508063355 | 74 | 180 | 0.0 | 0.0 | 0.00 | 0.00 | 0.00 | 88 | 1017.3 |
| 20260508062851 | 74 | 175 | 1.0 | 1.0 | 0.00 | 0.00 | 0.00 | 88 | 1017.3 |
| 20260508062343 | 74 | 176 | 0.0 | 0.0 | 0.00 | 0.00 | 0.00 | 87 | 1017.2 |
| 20260508061840 | 74 | 204 | 1.0 | 2.0 | 0.00 | 0.00 | 0.00 | 87 | 1017.1 |
| 20260508061337 | 74 | 196 | 3.0 | 3.0 | 0.00 | 0.00 | 0.00 | 87 | 1017.3 |
| 20260508060833 | 75 | 167 | 0.0 | 0.0 | 0.00 | 0.00 | 0.00 | 87 | 1017.2 |
| 20260508060332 | 75 | 206 | 2.0 | 2.0 | 0.00 | 0.00 | 0.00 | 86 | 1017.2 |
| 20260508055826 | 75 | 182 | 1.0 | 1.0 | 0.00 | 0.00 | 0.00 | 86 | 1017.4 |
| 20260508055324 | 75 | 189 | 4.0 | 5.0 | 0.00 | 0.00 | 0.00 | 86 | 1017.6 |
| 20260508054821 | 75 | 182 | 0.0 | 2.0 | 0.00 | 0.00 | 0.00 | 85 | 1017.3 |
| 20260508054318 | 75 | 164 | 0.0 | 0.0 | 0.00 | 0.00 | 0.00 | 85 | 1017.7 |
| 20260508053815 | 75 | 183 | 1.0 | 1.0 | 0.00 | 0.00 | 0.00 | 85 | 1017.5 |
| 20260508053313 | 75 | 168 | 1.0 | 1.0 | 0.00 | 0.00 | 0.00 | 84 | 1017.6 |
| 20260508052810 | 75 | 166 | 1.0 | 2.0 | 0.00 | 0.00 | 0.00 | 84 | 1017.6 |
| 20260508052307 | 75 | 175 | 2.0 | 3.0 | 0.00 | 0.00 | 0.00 | 83 | 1017.8 |
| 20260508051803 | 75 | 163 | 1.0 | 1.0 | 0.00 | 0.00 | 0.00 | 83 | 1017.5 |
| 20260508051258 | 75 | 186 | 3.0 | 3.0 | 0.00 | 0.00 | 0.00 | 82 | 1017.6 |
| 20260508050755 | 75 | 180 | 0.0 | 0.0 | 0.00 | 0.00 | 0.00 | 82 | 1017.3 |
| 20260508050252 | 75 | 172 | 0.0 | 0.0 | 0.00 | 0.00 | 0.00 | 81 | 1017.7 |
| 20260508045748 | 76 | 163 | 1.0 | 1.0 | 0.00 | 0.00 | 0.00 | 81 | 1017.8 |
| 20260508045246 | 76 | 177 | 0.0 | 0.0 | 0.00 | 0.00 | 0.00 | 81 | 1017.3 |
| 20260508044743 | 76 | 271 | 3.0 | 5.0 | 0.00 | 0.00 | 0.00 | 80 | 1017.4 |
| 20260508044240 | 76 | 165 | 0.0 | 0.0 | 0.00 | 0.00 | 0.00 | 80 | 1017.3 |
| 20260508043736 | 76 | 167 | 0.0 | 0.0 | 0.00 | 0.00 | 0.00 | 79 | 1017.5 |
| 20260508043233 | 76 | 186 | 0.0 | 0.0 | 0.00 | 0.00 | 0.00 | 79 | 1017.4 |
| 20260508042730 | 77 | 167 | 0.0 | 0.0 | 0.00 | 0.00 | 0.00 | 78 | 1017.4 |
| 20260508042227 | 77 | 196 | 2.0 | 2.0 | 0.00 | 0.00 | 0.00 | 78 | 1017.5 |
| 20260508041724 | 77 | 173 | 1.0 | 1.0 | 0.00 | 0.00 | 0.00 | 77 | 1017.3 |
| 20260508041220 | 77 | 177 | 0.0 | 0.0 | 0.00 | 0.00 | 0.00 | 77 | 1017.2 |
| 20260508040717 | 77 | 166 | 0.0 | 0.0 | 0.00 | 0.00 | 0.00 | 77 | 1017.2 |
| 20260508040214 | 77 | 165 | 0.0 | 0.0 | 0.00 | 0.00 | 0.00 | 76 | 1017.3 |
| 20260508035712 | 77 | 154 | 2.0 | 2.0 | 0.00 | 0.00 | 0.00 | 76 | 1017.4 |
| 20260508035209 | 77 | 164 | 0.0 | 1.0 | 0.00 | 0.00 | 0.00 | 76 | 1017.2 |
| 20260508034705 | 78 | 172 | 1.0 | 1.0 | 0.00 | 0.00 | 0.00 | 75 | 1017.3 |
| 20260508034203 | 78 | 167 | 1.0 | 1.0 | 0.00 | 0.00 | 0.00 | 74 | 1017.3 |
| 20260508033659 | 78 | 174 | 1.0 | 1.0 | 0.00 | 0.00 | 0.00 | 74 | 1017.4 |
| 20260508033158 | 78 | 176 | 1.0 | 2.0 | 0.00 | 0.00 | 0.00 | 74 | 1017.5 |
| 20260508032655 | 78 | 168 | 2.0 | 2.0 | 0.00 | 0.00 | 0.00 | 74 | 1017.3 |
| 20260508032152 | 78 | 246 | 3.0 | 3.0 | 0.00 | 0.00 | 0.00 | 73 | 1017.4 |
| 20260508031649 | 78 | 198 | 1.0 | 2.0 | 0.00 | 0.00 | 0.00 | 73 | 1017.4 |
| 20260508031145 | 78 | 191 | 3.0 | 5.0 | 0.00 | 0.00 | 0.00 | 73 | 1017.2 |
| 20260508030641 | 78 | 166 | 1.0 | 1.0 | 0.00 | 0.00 | 0.00 | 73 | 1017.1 |
| 20260508030139 | 79 | 169 | 1.0 | 2.0 | 0.00 | 0.00 | 0.00 | 73 | 1016.8 |
| 20260508025635 | 79 | 171 | 1.0 | 1.0 | 0.00 | 0.00 | 0.00 | 73 | 1017.1 |
| 20260508025133 | 79 | 166 | 1.0 | 2.0 | 0.00 | 0.00 | 0.00 | 72 | 1017.1 |
| 20260508024628 | 79 | 167 | 0.0 | 1.0 | 0.00 | 0.00 | 0.00 | 72 | 1016.9 |
| 20260508024126 | 79 | 174 | 1.0 | 1.0 | 0.00 | 0.00 | 0.00 | 71 | 1017.0 |
| 20260508023622 | 79 | 177 | 2.0 | 2.0 | 0.00 | 0.00 | 0.00 | 70 | 1017.0 |
| 20260508023120 | 78 | 186 | 0.0 | 0.0 | 0.00 | 0.00 | 0.00 | 70 | 1016.8 |
| 20260508022615 | 79 | 165 | 0.0 | 0.0 | 0.00 | 0.00 | 0.00 | 69 | 1017.0 |
| 20260508022113 | 79 | 169 | 0.0 | 1.0 | 0.00 | 0.00 | 0.00 | 68 | 1016.8 |
| 20260508021608 | 79 | 209 | 2.0 | 2.0 | 0.00 | 0.00 | 0.00 | 68 | 1016.8 |
| 20260508021104 | 79 | 182 | 0.0 | 1.0 | 0.00 | 0.00 | 0.00 | 66 | 1016.7 |
| 20260508020602 | 79 | 175 | 1.0 | 1.0 | 0.00 | 0.00 | 0.00 | 65 | 1016.7 |
| 20260508020059 | 79 | 164 | 1.0 | 1.0 | 0.00 | 0.00 | 0.00 | 65 | 1016.6 |
| 20260508015557 | 79 | 170 | 0.0 | 0.0 | 0.00 | 0.00 | 0.00 | 64 | 1016.6 |
| 20260508015054 | 79 | 168 | 1.0 | 1.0 | 0.00 | 0.00 | 0.00 | 63 | 1016.4 |
| 20260508014550 | 79 | 170 | 0.0 | 0.0 | 0.00 | 0.00 | 0.00 | 62 | 1016.1 |
| 20260508014046 | 79 | 165 | 0.0 | 0.0 | 0.00 | 0.00 | 0.00 | 62 | 1016.3 |
| 20260508013542 | 80 | 178 | 0.0 | 0.0 | 0.00 | 0.00 | 0.00 | 61 | 1016.2 |
| 20260508013039 | 80 | 183 | 1.0 | 2.0 | 0.00 | 0.00 | 0.00 | 60 | 1016.3 |
| 20260508012537 | 80 | 164 | 0.0 | 0.0 | 0.00 | 0.00 | 0.00 | 59 | 1016.1 |
| 20260508012034 | 80 | 200 | 1.0 | 2.0 | 0.00 | 0.00 | 0.00 | 58 | 1016.0 |
| 20260508011533 | 80 | 166 | 0.0 | 1.0 | 0.00 | 0.00 | 0.00 | 58 | 1016.2 |
| 20260508011029 | 80 | 171 | 0.0 | 0.0 | 0.00 | 0.00 | 0.00 | 56 | 1016.3 |
| 20260508010526 | 81 | 173 | 1.0 | 1.0 | 0.00 | 0.00 | 0.00 | 55 | 1016.0 |
| 20260508010024 | 81 | 167 | 0.0 | 0.0 | 0.00 | 0.00 | 0.00 | 56 | 1016.1 |
| 20260508005520 | 81 | 172 | 2.0 | 2.0 | 0.00 | 0.00 | 0.00 | 55 | 1016.0 |
| 20260508005017 | 81 | 166 | 0.0 | 0.0 | 0.00 | 0.00 | 0.00 | 55 | 1016.0 |
| 20260508004513 | 81 | 168 | 0.0 | 0.0 | 0.00 | 0.00 | 0.00 | 55 | 1015.7 |
| 20260508004010 | 81 | 173 | 0.0 | 0.0 | 0.00 | 0.00 | 0.00 | 55 | 1016.1 |
| 20260508003506 | 81 | 166 | 0.0 | 1.0 | 0.00 | 0.00 | 0.00 | 57 | 1016.0 |
| 20260508003005 | 80 | 172 | 0.0 | 0.0 | 0.00 | 0.00 | 0.00 | 58 | 1015.8 |
| 20260508002459 | 80 | 172 | 0.0 | 0.0 | 0.00 | 0.00 | 0.00 | 62 | 1015.8 |
| 20260508001956 | 80 | 168 | 0.0 | 0.0 | 0.00 | 0.00 | 0.00 | 63 | 1015.8 |
| 20260508001453 | 79 | 162 | 0.0 | 0.0 | 0.00 | 0.00 | 0.00 | 73 | 1015.7 |
| 20260508000949 | 80 | 162 | 0.0 | 0.0 | 0.00 | 0.00 | 0.00 | 73 | 1015.6 |
| 20260508000445 | 80 | 162 | 0.0 | 0.0 | 0.00 | 0.00 | 0.00 | 73 | 1015.9 |
| 20260507235942 | 81 | 162 | 0.0 | 0.0 | 0.00 | 0.00 | 0.00 | 73 | 1015.7 |
| 20260507235439 | 82 | 162 | 0.0 | 0.0 | 0.00 | 0.00 | 0.00 | 73 | 1015.8 |
| 20260507234937 | 82 | 162 | 0.0 | 0.0 | 0.00 | 0.00 | 0.00 | 72 | 1015.7 |
| 20260507234433 | 83 | 159 | 0.0 | 0.0 | 0.00 | 0.00 | 0.00 | 71 | 1015.6 |
| 20260507233930 | 84 | 160 | 0.0 | 0.0 | 0.00 | 0.00 | 0.00 | 69 | 1015.7 |
| 20260507233426 | 84 | 144 | 0.0 | 0.0 | 0.00 | 0.00 | 0.00 | 67 | 1015.5 |
| 20260507232925 | 85 | 144 | 0.0 | 0.0 | 0.00 | 0.00 | 0.00 | 65 | 1015.5 |
| 20260507232421 | 85 | 147 | 0.0 | 0.0 | 0.00 | 0.00 | 0.00 | 65 | 1015.6 |
| 20260507231918 | 85 | 144 | 0.0 | 0.0 | 0.00 | 0.00 | 0.00 | 64 | 1015.4 |
| 20260507231415 | 86 | 138 | 0.0 | 0.0 | 0.00 | 0.00 | 0.00 | 64 | 1015.6 |
| 20260507230911 | 87 | 145 | 0.0 | 0.0 | 0.00 | 0.00 | 0.00 | 62 | 1015.5 |
| 20260507230409 | 87 | 152 | 0.0 | 0.0 | 0.00 | 0.00 | 0.00 | 62 | 1015.6 |
| 20260507225908 | 88 | 146 | 0.0 | 0.0 | 0.00 | 0.00 | 0.00 | 61 | 1015.5 |
| 20260507225405 | 88 | 123 | 0.0 | 0.0 | 0.00 | 0.00 | 0.00 | 60 | 1015.4 |
| 20260507224901 | 88 | 141 | 0.0 | 1.0 | 0.00 | 0.00 | 0.00 | 61 | 1015.4 |
| 20260507224357 | 88 | 156 | 0.0 | 0.0 | 0.00 | 0.00 | 0.00 | 60 | 1015.3 |
| 20260507223853 | 89 | 135 | 0.0 | 0.0 | 0.00 | 0.00 | 0.00 | 60 | 1015.3 |
| 20260507223350 | 89 | 154 | 0.0 | 0.0 | 0.00 | 0.00 | 0.00 | 58 | 1015.4 |
| 20260507222847 | 88 | 159 | 0.0 | 0.0 | 0.00 | 0.00 | 0.00 | 59 | 1015.4 |
| 20260507222343 | 88 | 162 | 0.0 | 0.0 | 0.00 | 0.00 | 0.00 | 60 | 1015.4 |
| 20260507221840 | 89 | 124 | 0.0 | 0.0 | 0.00 | 0.00 | 0.00 | 59 | 1015.6 |
| 20260507221337 | 88 | 151 | 0.0 | 0.0 | 0.00 | 0.00 | 0.00 | 60 | 1015.5 |
| 20260507220832 | 87 | 146 | 0.0 | 0.0 | 0.00 | 0.00 | 0.00 | 61 | 1015.4 |
| 20260507220331 | 87 | 90 | 1.0 | 2.0 | 0.00 | 0.00 | 0.00 | 62 | 1015.6 |
| 20260507215827 | 89 | 173 | 0.0 | 0.0 | 0.00 | 0.00 | 0.00 | 58 | 1015.9 |
| 20260507215324 | 88 | 116 | 0.0 | 1.0 | 0.00 | 0.00 | 0.00 | 60 | 1015.7 |
| 20260507214821 | 88 | 124 | 1.0 | 1.0 | 0.00 | 0.00 | 0.00 | 61 | 1015.8 |
| 20260507214319 | 87 | 119 | 3.0 | 3.0 | 0.00 | 0.00 | 0.00 | 60 | 1015.6 |
| 20260507213813 | 88 | 136 | 1.0 | 1.0 | 0.00 | 0.00 | 0.00 | 61 | 1015.8 |
| 20260507213311 | 89 | 77 | 1.0 | 2.0 | 0.00 | 0.00 | 0.00 | 61 | 1015.7 |
| 20260507212808 | 91 | 153 | 2.0 | 2.0 | 0.00 | 0.00 | 0.00 | 57 | 1016.1 |
| 20260507212306 | 93 | 127 | 2.0 | 2.0 | 0.00 | 0.00 | 0.00 | 54 | 1015.9 |
| 20260507211800 | 95 | 105 | 1.0 | 1.0 | 0.00 | 0.00 | 0.00 | 51 | 1015.9 |
| 20260507211257 | 95 | 139 | 1.0 | 1.0 | 0.00 | 0.00 | 0.00 | 36 | 1016.0 |
| 20260507210754 | 95 | 200 | 4.0 | 7.0 | 0.00 | 0.00 | 0.00 | 36 | 1015.7 |
| 20260507210251 | 95 | 192 | 1.0 | 1.0 | 0.00 | 0.00 | 0.00 | 36 | 1015.6 |
| 20260507205747 | 96 | 164 | 2.0 | 3.0 | 0.00 | 0.00 | 0.00 | 35 | 1015.7 |
| 20260507205244 | 97 | 240 | 2.0 | 3.0 | 0.00 | 0.00 | 0.00 | 35 | 1015.9 |
| 20260507204740 | 97 | 165 | 4.0 | 6.0 | 0.00 | 0.00 | 0.00 | 34 | 1015.6 |
| 20260507204238 | 97 | 160 | 3.0 | 3.0 | 0.00 | 0.00 | 0.00 | 32 | 1015.8 |
| 20260507203736 | 97 | 131 | 1.0 | 2.0 | 0.00 | 0.00 | 0.00 | 32 | 1015.7 |
| 20260507203233 | 97 | 193 | 3.0 | 3.0 | 0.00 | 0.00 | 0.00 | 32 | 1015.9 |
| 20260507202729 | 97 | 58 | 2.0 | 3.0 | 0.00 | 0.00 | 0.00 | 31 | 1015.7 |
| 20260507202225 | 98 | 298 | 1.0 | 5.0 | 0.00 | 0.00 | 0.00 | 32 | 1015.9 |
| 20260507201720 | 98 | 156 | 4.0 | 7.0 | 0.00 | 0.00 | 0.00 | 33 | 1015.9 |
| 20260507201217 | 99 | 111 | 3.0 | 3.0 | 0.00 | 0.00 | 0.00 | 33 | 1015.7 |
| 20260507200714 | 97 | 180 | 1.0 | 1.0 | 0.00 | 0.00 | 0.00 | 35 | 1016.0 |
| 20260507200210 | 98 | 188 | 2.0 | 2.0 | 0.00 | 0.00 | 0.00 | 35 | 1016.0 |
| 20260507195706 | 98 | 47 | 3.0 | 3.0 | 0.00 | 0.00 | 0.00 | 34 | 1016.1 |
| 20260507195203 | 98 | 328 | 2.0 | 3.0 | 0.00 | 0.00 | 0.00 | 37 | 1016.1 |
| 20260507194700 | 97 | 79 | 3.0 | 3.0 | 0.00 | 0.00 | 0.00 | 39 | 1016.1 |
| 20260507194156 | 96 | 191 | 2.0 | 2.0 | 0.00 | 0.00 | 0.00 | 39 | 1015.9 |
| 20260507193653 | 97 | 197 | 3.0 | 3.0 | 0.00 | 0.00 | 0.00 | 40 | 1016.2 |
| 20260507193150 | 96 | 249 | 3.0 | 3.0 | 0.00 | 0.00 | 0.00 | 41 | 1016.3 |
| 20260507192646 | 97 | 189 | 1.0 | 1.0 | 0.00 | 0.00 | 0.00 | 41 | 1016.2 |
| 20260507192143 | 97 | 151 | 0.0 | 0.0 | 0.00 | 0.00 | 0.00 | 40 | 1016.3 |
| 20260507191639 | 96 | 237 | 2.0 | 3.0 | 0.00 | 0.00 | 0.00 | 41 | 1016.2 |
| 20260507191136 | 96 | 200 | 1.0 | 2.0 | 0.00 | 0.00 | 0.00 | 43 | 1016.3 |
| 20260507190633 | 96 | 174 | 6.0 | 10.0 | 0.00 | 0.00 | 0.00 | 41 | 1016.3 |
| 20260507190132 | 96 | 314 | 7.0 | 8.0 | 0.00 | 0.00 | 0.00 | 41 | 1016.5 |
| 20260507185630 | 95 | 210 | 4.0 | 7.0 | 0.00 | 0.00 | 0.00 | 42 | 1016.7 |
| 20260507185126 | 95 | 180 | 2.0 | 3.0 | 0.00 | 0.00 | 0.00 | 43 | 1016.8 |
| 20260507184624 | 95 | 190 | 4.0 | 6.0 | 0.00 | 0.00 | 0.00 | 43 | 1016.8 |
| 20260507184122 | 95 | 16 | 5.0 | 7.0 | 0.00 | 0.00 | 0.00 | 44 | 1017.1 |
| 20260507183618 | 95 | 216 | 3.0 | 3.0 | 0.00 | 0.00 | 0.00 | 43 | 1017.2 |
| 20260507183115 | 94 | 211 | 3.0 | 3.0 | 0.00 | 0.00 | 0.00 | 43 | 1017.3 |
| 20260507182611 | 94 | 207 | 3.0 | 3.0 | 0.00 | 0.00 | 0.00 | 44 | 1017.4 |
| 20260507182107 | 94 | 203 | 5.0 | 9.0 | 0.00 | 0.00 | 0.00 | 44 | 1017.5 |
| 20260507181604 | 94 | 185 | 1.0 | 2.0 | 0.00 | 0.00 | 0.00 | 45 | 1017.7 |
| 20260507181100 | 94 | 219 | 4.0 | 7.0 | 0.00 | 0.00 | 0.00 | 44 | 1017.7 |
| 20260507180558 | 93 | 234 | 3.0 | 5.0 | 0.00 | 0.00 | 0.00 | 45 | 1017.7 |
| 20260507180054 | 93 | 180 | 6.0 | 7.0 | 0.00 | 0.00 | 0.00 | 45 | 1017.7 |
| 20260507175550 | 93 | 219 | 3.0 | 3.0 | 0.00 | 0.00 | 0.00 | 48 | 1017.9 |
| 20260507175048 | 93 | 212 | 3.0 | 3.0 | 0.00 | 0.00 | 0.00 | 47 | 1018.3 |
| 20260507174544 | 93 | 178 | 0.0 | 0.0 | 0.00 | 0.00 | 0.00 | 48 | 1017.8 |
| 20260507174042 | 93 | 191 | 3.0 | 5.0 | 0.00 | 0.00 | 0.00 | 48 | 1018.1 |
| 20260507173539 | 94 | 214 | 3.0 | 3.0 | 0.00 | 0.00 | 0.00 | 47 | 1018.0 |
| 20260507173036 | 93 | 247 | 4.0 | 5.0 | 0.00 | 0.00 | 0.00 | 48 | 1017.9 |
| 20260507172532 | 93 | 214 | 2.0 | 5.0 | 0.00 | 0.00 | 0.00 | 49 | 1018.1 |
| 20260507172029 | 92 | 197 | 2.0 | 2.0 | 0.00 | 0.00 | 0.00 | 49 | 1018.3 |
| 20260507171524 | 92 | 175 | 0.0 | 0.0 | 0.00 | 0.00 | 0.00 | 50 | 1018.1 |
| 20260507171022 | 92 | 178 | 1.0 | 2.0 | 0.00 | 0.00 | 0.00 | 50 | 1018.2 |
| 20260507170519 | 93 | 224 | 4.0 | 6.0 | 0.00 | 0.00 | 0.00 | 49 | 1018.3 |
| 20260507170016 | 92 | 201 | 3.0 | 3.0 | 0.00 | 0.00 | 0.00 | 51 | 1018.4 |
| 20260507165511 | 92 | 195 | 3.0 | 3.0 | 0.00 | 0.00 | 0.00 | 53 | 1018.1 |
| 20260507165008 | 92 | 190 | 2.0 | 2.0 | 0.00 | 0.00 | 0.00 | 55 | 1018.0 |
| 20260507164504 | 91 | 160 | 2.0 | 3.0 | 0.00 | 0.00 | 0.00 | 55 | 1018.3 |
| 20260507164001 | 90 | 215 | 2.0 | 2.0 | 0.00 | 0.00 | 0.00 | 56 | 1018.3 |
| 20260507163458 | 90 | 169 | 1.0 | 1.0 | 0.00 | 0.00 | 0.00 | 58 | 1018.2 |
| 20260507162955 | 91 | 231 | 5.0 | 7.0 | 0.00 | 0.00 | 0.00 | 55 | 1018.5 |
| 20260507162451 | 90 | 187 | 3.0 | 5.0 | 0.00 | 0.00 | 0.00 | 58 | 1018.3 |
| 20260507161948 | 89 | 225 | 3.0 | 5.0 | 0.00 | 0.00 | 0.00 | 57 | 1018.6 |
| 20260507161444 | 89 | 167 | 0.0 | 1.0 | 0.00 | 0.00 | 0.00 | 58 | 1018.4 |
| 20260507160941 | 88 | 152 | 2.0 | 3.0 | 0.00 | 0.00 | 0.00 | 58 | 1018.6 |
| 20260507160437 | 88 | 195 | 3.0 | 6.0 | 0.00 | 0.00 | 0.00 | 58 | 1018.6 |